Location: Aressy
(43.2833°N, 0.3167°W)
Time: 21:16:29
(UTC+00:00)

Meteor 2-21 - Pass Details

Date: 28 January 2021
Orbit: 934 x 966 km, 82.6° (Epoch: 03 March)

Event Time Altitude Azimuth Distance (km) Brightness Sun altitude
Rises 19:29:56 0° 188° (S) 3,588 7.6 -25.8°
Reaches altitude 10° 19:32:24 10° 188° (S) 2,652 6.9 -26.3°
Maximum altitude 19:38:28 85° 277° (W) 957 4.4 -27.4°
Drops below altitude 10° 19:44:39 10° 7° (N) 2,692 6.7 -28.5°
Sets 19:47:10 0° 9° (N) 3,646 7.4 -29.0°
